Location: La Silve
(44.2414°N, 5.8889°E)
Time: 12:00:51
(UTC+00:00)

USA 267 - Pass Details

Date: 01 December 2020
Orbit: 1100 x 1107 km, 123.0° (Epoch: 18 January)

Event Time Altitude Azimuth Distance (km) Brightness Sun altitude
Exits shadow 17:34:03 24° 69° (ENE) 2,115 4.1 -16.5°
Maximum altitude 17:37:18 38° 20° (NNE) 1,611 3.9 -17.1°
Drops below altitude 10° 17:43:15 10° 315° (NW) 2,968 5.9 -18.1°
Sets 17:45:54 0° 308° (NW) 3,929 6.7 -18.6°
